• In Uzbekistan
  • List of Countries
  • For 7 days
  • Water Temperature
  • Satellite Maps
  • Weather Map
  • Weather Widgets
  • user-avatar
    Login

    Hourly Weather Graz

    Today, 24 January, Thursday

    Time Temperature Precipitation Wind Pressure Humidity
    00:00 -5°C° 0 mm 0 mps 712 mmHg 89%
    01:00 -6°C° 0 mm 0 mps 712 mmHg 89%
    02:00 -4°C° 0 mm 1 mps 712 mmHg 88%
    03:00 -4°C° 0 mm 1 mps 713 mmHg 87%
    04:00 -4°C° 0 mm 1 mps 713 mmHg 86%
    05:00 -4°C° 0 mm 1 mps 713 mmHg 86%
    06:00 -4°C° 0 mm 1 mps 713 mmHg 85%
    07:00 -5°C° 0 mm 0 mps 714 mmHg 85%
    08:00 -3°C° 0 mm 1 mps 714 mmHg 81%
    09:00 -2°C° 0 mm 1 mps 714 mmHg 76%
    10:00 -1°C° 0 mm 1 mps 715 mmHg 72%
    11:00 0°C° 0 mm 1 mps 715 mmHg 69%
    12:00 +2°C° 0 mm 1 mps 715 mmHg 66%
    13:00 +3°C° 0 mm 1 mps 715 mmHg 63%
    14:00 +2°C° 0 mm 1 mps 715 mmHg 67%
    15:00 +2°C° 0 mm 1 mps 715 mmHg 71%
    16:00 +1°C° 0 mm 1 mps 715 mmHg 76%
    17:00 0°C° 0 mm 1 mps 715 mmHg 79%
    18:00 -1°C° 0 mm 1 mps 715 mmHg 82%
    19:00 -3°C° 0 mm 1 mps 716 mmHg 85%
    20:00 -5°C° 0 mm 2 mps 716 mmHg 83%
    21:00 -5°C° 0 mm 2 mps 717 mmHg 82%
    22:00 -6°C° 0 mm 2 mps 717 mmHg 80%
    23:00 -6°C° 0 mm 2 mps 717 mmHg 80%

    Tomorrow, 25 January, Friday

    Time Temperature Precipitation Wind Pressure Humidity
    00:00 -6°C° 0 mm 2 mps 717 mmHg 80%
    01:00 -6°C° 0 mm 2 mps 717 mmHg 79%
    02:00 -6°C° 0 mm 2 mps 717 mmHg 79%
    03:00 -6°C° 0 mm 2 mps 718 mmHg 80%
    04:00 -7°C° 0 mm 2 mps 718 mmHg 80%
    05:00 -7°C° 0 mm 2 mps 718 mmHg 80%
    06:00 -7°C° 0 mm 2 mps 718 mmHg 80%
    07:00 -7°C° 0 mm 2 mps 718 mmHg 81%
    08:00 -6°C° 0 mm 2 mps 719 mmHg 76%
    09:00 -4°C° 0 mm 2 mps 719 mmHg 71%
    10:00 -3°C° 0 mm 2 mps 720 mmHg 66%
    11:00 -2°C° 0 mm 2 mps 720 mmHg 63%
    12:00 -1°C° 0 mm 2 mps 720 mmHg 61%
    13:00 +1°C° 0 mm 2 mps 720 mmHg 59%
    14:00 -1°C° 0 mm 2 mps 720 mmHg 62%
    15:00 -1°C° 0 mm 2 mps 720 mmHg 65%
    16:00 0°C° 0 mm 1 mps 720 mmHg 68%
    17:00 -3°C° 0 mm 2 mps 720 mmHg 71%
    18:00 -4°C° 0 mm 2 mps 721 mmHg 75%
    19:00 -6°C° 0 mm 2 mps 721 mmHg 78%
    20:00 -6°C° 0 mm 2 mps 722 mmHg 78%
    21:00 -6°C° 0 mm 2 mps 722 mmHg 77%
    22:00 -6°C° 0 mm 2 mps 722 mmHg 77%
    23:00 -7°C° 0 mm 2 mps 722 mmHg 77%

    Day after tomorrow, 26 January, Saturday

    Time Temperature Precipitation Wind Pressure Humidity
    00:00 -7°C° 0 mm 2 mps 722 mmHg 78%
    01:00 -7°C° 0 mm 2 mps 722 mmHg 78%
    02:00 -7°C° 0 mm 2 mps 722 mmHg 76%
    03:00 -7°C° 0 mm 2 mps 721 mmHg 75%
    04:00 -8°C° 0 mm 2 mps 721 mmHg 73%
    05:00 -7°C° 0 mm 2 mps 721 mmHg 69%
    06:00 -7°C° 0 mm 2 mps 721 mmHg 65%
    07:00 -4°C° 0 mm 1 mps 720 mmHg 61%
    08:00 -3°C° 0 mm 1 mps 720 mmHg 58%
    09:00 -1°C° 0 mm 1 mps 720 mmHg 54%
    10:00 +1°C° 0 mm 1 mps 720 mmHg 51%
    11:00 +2°C° 0 mm 1 mps 719 mmHg 52%
    12:00 +4°C° 0 mm 1 mps 718 mmHg 54%
    13:00 +6°C° 0 mm 1 mps 718 mmHg 55%
    14:00 +5°C° 0 mm 1 mps 717 mmHg 61%
    15:00 +5°C° 0 mm 1 mps 717 mmHg 67%
    16:00 +4°C° 0 mm 1 mps 717 mmHg 72%
    17:00 +4°C° 0 mm 1 mps 717 mmHg 74%
    18:00 +3°C° 0 mm 1 mps 717 mmHg 76%
    19:00 +3°C° 0 mm 1 mps 717 mmHg 78%
    20:00 +3°C° 0.1 mm 1 mps 717 mmHg 79%
    21:00 +3°C° 0.1 mm 1 mps 717 mmHg 80%
    22:00 +3°C° 0.1 mm 1 mps 717 mmHg 81%
    23:00 +3°C° 0 mm 1 mps 716 mmHg 82%

    27 January, Sunday

    Time Temperature Precipitation Wind Pressure Humidity
    00:00 +3°C° 0 mm 1 mps 716 mmHg 83%
    01:00 +3°C° 0 mm 1 mps 716 mmHg 84%
    02:00 +3°C° 0 mm 1 mps 715 mmHg 85%
    03:00 +3°C° 0 mm 1 mps 715 mmHg 85%
    04:00 +2°C° 0 mm 1 mps 714 mmHg 85%
    05:00 +2°C° 0 mm 1 mps 714 mmHg 85%
    06:00 +2°C° 0 mm 1 mps 713 mmHg 86%
    07:00 +2°C° 0 mm 1 mps 713 mmHg 86%
    08:00 +2°C° 0 mm 0 mps 713 mmHg 83%
    09:00 +2°C° 0 mm 0 mps 712 mmHg 80%
    10:00 +3°C° 0 mm 0 mps 712 mmHg 77%
    11:00 +5°C° 0 mm 1 mps 711 mmHg 74%
    12:00 +5°C° 0 mm 1 mps 711 mmHg 71%
    13:00 +6°C° 0 mm 1 mps 710 mmHg 68%
    14:00 +5°C° 0 mm 1 mps 709 mmHg 71%
    15:00 +5°C° 0 mm 1 mps 709 mmHg 74%
    16:00 +4°C° 0 mm 1 mps 709 mmHg 77%
    17:00 +3°C° 0 mm 1 mps 708 mmHg 79%
    18:00 +2°C° 0 mm 1 mps 708 mmHg 81%
    19:00 +1°C° 0 mm 1 mps 708 mmHg 84%
    20:00 +1°C° 0 mm 1 mps 708 mmHg 83%
    21:00 +1°C° 0 mm 1 mps 708 mmHg 82%
    22:00 +1°C° 0 mm 1 mps 708 mmHg 82%
    23:00 +1°C° 0.3 mm 1 mps 708 mmHg 82%

    28 January, Monday

    Time Temperature Precipitation Wind Pressure Humidity
    00:00 +2°C° 0.3 mm 1 mps 707 mmHg 83%
    01:00 +2°C° 0.3 mm 1 mps 707 mmHg 84%
    02:00 +2°C° 0 mm 1 mps 707 mmHg 85%
    03:00 +1°C° 0 mm 1 mps 706 mmHg 86%
    04:00 +1°C° 0 mm 1 mps 706 mmHg 87%
    05:00 +1°C° 0 mm 1 mps 706 mmHg 87%
    06:00 +1°C° 0 mm 1 mps 706 mmHg 86%
    07:00 +1°C° 0 mm 1 mps 706 mmHg 86%
    08:00 +2°C° 0 mm 1 mps 706 mmHg 84%
    09:00 +3°C° 0 mm 1 mps 706 mmHg 81%
    10:00 +5°C° 0 mm 1 mps 707 mmHg 78%
    11:00 +4°C° 0 mm 0 mps 707 mmHg 77%
    12:00 +5°C° 0 mm 0 mps 707 mmHg 75%
    13:00 +6°C° 0 mm 0 mps 707 mmHg 74%
    14:00 +5°C° 0.2 mm 0 mps 707 mmHg 78%
    15:00 +4°C° 0.2 mm 0 mps 708 mmHg 82%
    16:00 +4°C° 0.2 mm 0 mps 708 mmHg 87%
    17:00 +3°C° 0.1 mm 0 mps 709 mmHg 88%
    18:00 +3°C° 0.1 mm 1 mps 709 mmHg 88%
    19:00 +3°C° 0.1 mm 1 mps 710 mmHg 89%
    20:00 +2°C° 0 mm 1 mps 711 mmHg 88%
    21:00 +2°C° 0 mm 1 mps 712 mmHg 87%
    22:00 +1°C° 0 mm 2 mps 713 mmHg 86%
    23:00 -1°C° 0 mm 2 mps 713 mmHg 86%

    29 January, Tuesday

    Time Temperature Precipitation Wind Pressure Humidity
    00:00 +1°C° 0 mm 1 mps 714 mmHg 85%
    01:00 +1°C° 0 mm 1 mps 715 mmHg 85%
    02:00 0°C° 0 mm 1 mps 715 mmHg 84%
    03:00 0°C° 0 mm 1 mps 716 mmHg 84%
    04:00 -1°C° 0 mm 1 mps 716 mmHg 84%
    05:00 -1°C° 0 mm 1 mps 717 mmHg 83%
    06:00 -1°C° 0 mm 1 mps 718 mmHg 82%
    07:00 -3°C° 0 mm 2 mps 718 mmHg 82%
    08:00 -1°C° 0 mm 1 mps 719 mmHg 76%
    09:00 0°C° 0 mm 1 mps 719 mmHg 70%
    10:00 +1°C° 0 mm 1 mps 720 mmHg 65%
    11:00 +2°C° 0 mm 1 mps 720 mmHg 62%
    12:00 +3°C° 0 mm 1 mps 720 mmHg 59%
    13:00 +2°C° 0 mm 0 mps 720 mmHg 56%
    14:00 +3°C° 0 mm 1 mps 719 mmHg 61%
    15:00 +2°C° 0 mm 1 mps 719 mmHg 66%
    16:00 +2°C° 0 mm 1 mps 719 mmHg 71%
    17:00 +1°C° 0 mm 1 mps 719 mmHg 77%
    18:00 -1°C° 0 mm 0 mps 719 mmHg 83%
    19:00 -2°C° 0 mm 0 mps 719 mmHg 89%
    20:00 -2°C° 0 mm 0 mps 719 mmHg 89%
    21:00 -3°C° 0 mm 0 mps 719 mmHg 90%
    22:00 -3°C° 0 mm 0 mps 719 mmHg 90%
    23:00 -3°C° 0 mm 0 mps 718 mmHg 90%
    Show more